Location: Aurora Center
(43.5271°N, 98.5894°W)
Time: 01:04:19
(UTC-05:00)

BlueWalker 3 - Pass Details

Date: 20 June 2024
Orbit: 480 x 492 km, 53.2° (Epoch: 15 July)

Event Time Altitude Azimuth Distance (km) Brightness Sun altitude
Rises 22:10:15 0° 233° (SW) 2,532 5.6 -8.1°
Reaches altitude 10° 22:12:24 10° 233° (SW) 1,654 4.7 -8.3°
Maximum altitude 22:16:08 90° 174° (S) 485 1.8 -8.8°
Drops below altitude 10° 22:19:53 10° 55° (NE) 1,658 4.5 -9.3°
Sets 22:22:03 0° 55° (NE) 2,539 5.4 -9.6°
